.
WxDataArchive / Data Records for 2010-03-23
2010-03-22 March 2010 2010-03-24

Data Records for Tuesday, 23 March 2010

Time	Temp	Chill	HIndex	Humid	Dewpt	 Wind 	HiWind	WindDir	Rain 	Barom 
-----	----	-----	------	-----	-----	------	------	-------	-----	----- 
00:00	37.9	37.9	37.9	88	34.7	0	1	248	0.00	29.835 
00:05	37.9	37.9	37.9	88	34.7	0	2	68	0.00	29.835 
00:10	37.9	37.9	37.9	89	35.0	0	1	68	0.00	29.835 
00:15	37.9	37.9	37.9	89	35.0	0	3	135	0.00	29.837 
00:20	37.9	37.9	37.9	88	34.7	1	3	68	0.00	29.837 
00:25	37.9	37.9	37.9	88	34.7	0	3	68	0.00	29.837 
00:30	37.9	37.9	37.9	88	34.7	1	4	90	0.00	29.843 
00:35	37.9	37.9	37.9	88	34.7	1	6	68	0.00	29.843 
00:40	38.0	38.0	38.0	87	34.5	2	7	68	0.00	29.843 
00:45	38.0	38.0	38.0	87	34.5	1	6	112	0.00	29.845 
00:50	38.0	38.0	38.0	87	34.5	0	1	112	0.00	29.845 
00:55	38.0	38.0	38.0	87	34.5	1	6	135	0.00	29.845 
01:00	38.0	38.0	38.0	87	34.5	0	2	135	0.00	29.848 
01:05	38.0	38.0	38.0	87	34.5	0	1	135	0.00	29.848 
01:10	38.0	38.0	38.0	87	34.5	0	3	22	0.00	29.848 
01:15	37.9	37.9	37.9	87	34.4	0	3	22	0.00	29.848 
01:20	37.9	37.9	37.9	87	34.4	0	3	0	0.00	29.848 
01:25	37.9	37.9	37.9	87	34.4	0	4	0	0.00	29.848 
01:30	37.9	37.9	37.9	87	34.4	0	2	135	0.00	29.848 
01:35	37.9	37.9	37.9	87	34.4	0	2	270	0.00	29.848 
01:40	37.8	37.8	37.8	87	34.3	0	2	22	0.00	29.848 
01:45	37.8	37.8	37.8	87	34.3	0	1	22	0.00	29.838 
01:50	37.8	37.8	37.8	87	34.3	0	3	22	0.00	29.838 
01:55	37.8	37.8	37.8	87	34.3	0	1	22	0.00	29.838 
02:00	37.8	37.8	37.8	88	34.6	0	2	22	0.00	29.838 
02:05	37.8	37.8	37.8	88	34.6	0	1	22	0.00	29.838 
02:10	37.8	37.8	37.8	88	34.6	0	3	22	0.00	29.838 
02:15	37.8	37.8	37.8	88	34.6	0	1	338	0.00	29.839 
02:20	37.8	37.8	37.8	88	34.6	0	1	338	0.00	29.839 
02:25	37.8	37.8	37.8	87	34.3	0	3	22	0.00	29.839 
02:30	37.8	37.8	37.8	87	34.3	0	2	22	0.00	29.837 
02:35	37.8	37.8	37.8	87	34.3	0	0	---	0.00	29.837 
02:40	37.8	37.8	37.8	87	34.3	0	2	0	0.00	29.837 
02:45	37.8	37.8	37.8	87	34.3	0	1	315	0.00	29.838 
02:50	37.9	37.9	37.9	87	34.4	0	2	315	0.00	29.838 
02:55	37.9	37.9	37.9	87	34.4	0	2	315	0.00	29.838 
03:00	37.9	37.9	37.9	87	34.4	0	2	315	0.00	29.838 
03:05	37.9	37.9	37.9	87	34.4	0	2	315	0.00	29.838 
03:10	37.9	37.9	37.9	87	34.4	0	2	315	0.00	29.838 
03:15	38.0	38.0	38.0	87	34.5	0	2	315	0.00	29.838 
03:20	38.0	38.0	38.0	87	34.5	0	2	315	0.00	29.838 
03:25	38.0	38.0	38.0	87	34.5	0	1	315	0.00	29.838 
03:30	38.0	38.0	38.0	87	34.5	0	1	315	0.00	29.836 
03:35	38.0	38.0	38.0	87	34.5	0	1	315	0.00	29.836 
03:40	38.0	38.0	38.0	87	34.5	0	3	338	0.00	29.836 
03:45	38.0	38.0	38.0	86	34.2	0	2	338	0.00	29.835 
03:50	38.0	38.0	38.0	86	34.2	0	2	315	0.00	29.835 
03:55	38.2	38.2	38.2	86	34.4	0	1	315	0.00	29.835 
04:00	38.2	38.2	38.2	86	34.4	0	1	315	0.00	29.829 
04:05	38.2	38.2	38.2	86	34.4	0	2	315	0.00	29.829 
04:10	38.2	38.2	38.2	86	34.4	0	3	315	0.00	29.829 
04:15	38.2	38.2	38.2	85	34.1	0	2	315	0.00	29.826 
04:20	38.3	38.3	38.3	85	34.2	0	3	315	0.00	29.826 
04:25	38.3	38.3	38.3	85	34.2	1	4	315	0.00	29.826 
04:30	38.3	38.3	38.3	84	33.9	1	3	315	0.00	29.824 
04:35	38.5	38.5	38.5	84	34.1	1	4	270	0.00	29.824 
04:40	38.5	38.5	38.5	84	34.1	1	2	270	0.00	29.824 
04:45	38.5	38.5	38.5	83	33.8	1	5	292	0.00	29.823 
04:50	38.5	38.5	38.5	83	33.8	0	2	338	0.00	29.823 
04:55	38.5	38.5	38.5	83	33.8	1	3	270	0.00	29.823 
05:00	38.5	38.5	38.5	83	33.8	0	2	270	0.00	29.830 
05:05	38.5	38.5	38.5	83	33.8	0	2	0	0.00	29.830 
05:10	38.5	38.5	38.5	82	33.5	1	3	270	0.00	29.830 
05:15	38.5	38.5	38.5	82	33.5	0	3	270	0.00	29.825 
05:20	38.5	38.5	38.5	82	33.5	0	2	270	0.00	29.825 
05:25	38.5	38.5	38.5	82	33.5	0	3	270	0.00	29.825 
05:30	38.5	38.5	38.5	81	33.2	1	2	270	0.00	29.827 
05:35	38.5	38.5	38.5	81	33.2	1	2	270	0.00	29.827 
05:40	38.5	38.5	38.5	81	33.2	0	3	270	0.00	29.827 
05:45	38.5	38.5	38.5	81	33.2	0	2	270	0.00	29.830 
05:50	38.5	38.5	38.5	81	33.2	1	3	270	0.00	29.830 
05:55	38.5	38.5	38.5	81	33.2	0	3	292	0.00	29.830 
06:00	38.5	38.5	38.5	81	33.2	0	1	225	0.00	29.833 
06:05	38.5	38.5	38.5	80	32.9	1	5	270	0.00	29.833 
06:10	38.6	38.6	38.6	80	33.0	0	2	270	0.00	29.833 
06:15	38.6	38.6	38.6	80	33.0	1	4	270	0.00	29.835 
06:20	38.6	38.6	38.6	80	33.0	1	4	270	0.00	29.835 
06:25	38.6	38.6	38.6	80	33.0	0	4	248	0.00	29.835 
06:30	38.6	38.6	38.6	80	33.0	0	2	248	0.00	29.837 
06:35	38.6	38.6	38.6	80	33.0	0	2	248	0.00	29.837 
06:40	38.5	38.5	38.5	79	32.6	0	3	248	0.00	29.837 
06:45	38.5	38.5	38.5	79	32.6	0	1	248	0.00	29.842 
06:50	38.5	38.5	38.5	79	32.6	0	3	248	0.00	29.842 
06:55	38.6	38.6	38.6	79	32.7	1	5	270	0.00	29.842 
07:00	38.6	38.6	38.6	79	32.7	1	3	270	0.00	29.851 
07:05	38.6	38.6	38.6	79	32.7	1	2	270	0.00	29.851 
07:10	38.6	38.6	38.6	79	32.7	0	2	292	0.00	29.851 
07:15	38.6	38.6	38.6	78	32.3	0	2	292	0.00	29.854 
07:20	38.6	38.6	38.6	78	32.3	0	2	292	0.00	29.854 
07:25	38.6	38.6	38.6	78	32.3	0	3	292	0.00	29.854 
07:30	38.6	38.6	38.6	78	32.3	0	2	292	0.00	29.857 
07:35	38.6	38.6	38.6	78	32.3	0	3	292	0.00	29.857 
07:40	38.6	38.6	38.6	78	32.3	0	1	292	0.00	29.857 
07:45	38.6	38.6	38.6	78	32.3	0	2	292	0.00	29.857 
07:50	38.6	38.6	38.6	78	32.3	0	2	292	0.00	29.857 
07:55	38.6	38.6	38.6	78	32.3	0	1	292	0.00	29.857 
08:00	38.6	38.6	38.6	78	32.3	0	1	292	0.00	29.861 
08:05	38.6	38.6	38.6	78	32.3	0	1	292	0.00	29.861 
08:10	38.5	38.5	38.5	78	32.2	0	2	292	0.00	29.861 
08:15	38.5	38.5	38.5	78	32.2	0	2	292	0.00	29.867 
08:20	38.5	38.5	38.5	78	32.2	0	1	292	0.00	29.867 
08:25	38.6	38.6	38.6	78	32.3	0	1	292	0.00	29.867 
08:30	38.6	38.6	38.6	78	32.3	0	2	292	0.00	29.869 
08:35	38.9	38.9	38.9	78	32.6	0	3	292	0.00	29.869 
08:40	39.1	39.1	39.1	77	32.5	0	2	292	0.00	29.869 
08:45	39.3	39.3	39.3	77	32.7	0	2	292	0.00	29.877 
08:50	39.5	39.5	39.5	77	32.9	1	3	292	0.00	29.877 
08:55	39.5	39.5	39.5	77	32.9	0	1	292	0.00	29.877 
09:00	39.5	39.5	39.5	77	32.9	0	1	292	0.00	29.882 
09:05	39.5	39.5	39.5	77	32.9	0	2	292	0.00	29.882 
09:10	39.5	39.5	39.5	77	32.9	1	3	292	0.00	29.882 
09:15	39.5	39.5	39.5	77	32.9	0	3	292	0.00	29.885 
09:20	39.3	39.3	39.3	75	32.0	1	3	338	0.00	29.885 
09:25	39.5	39.5	39.5	76	32.6	0	3	338	0.00	29.885 
09:30	39.6	39.6	39.6	74	32.0	1	3	338	0.00	29.886 
09:35	39.8	39.8	39.8	74	32.2	1	4	315	0.00	29.886 
09:40	40.2	40.2	40.2	74	32.6	1	3	315	0.00	29.886 
09:45	40.3	40.3	40.3	73	32.3	1	7	338	0.00	29.892 
09:50	40.6	40.6	40.6	73	32.6	1	4	292	0.00	29.892 
09:55	40.9	40.9	40.9	72	32.6	1	3	315	0.00	29.892 
10:00	41.3	41.3	41.3	73	33.3	1	4	270	0.00	29.893 
10:05	41.3	41.3	41.3	71	32.6	1	2	270	0.00	29.893 
10:10	41.5	41.5	41.5	71	32.8	1	4	270	0.00	29.893 
10:15	41.5	41.5	41.5	70	32.5	1	4	0	0.00	29.895 
10:20	41.8	41.8	41.8	69	32.4	1	3	338	0.00	29.895 
10:25	41.8	41.8	41.8	70	32.7	1	3	292	0.00	29.895 
10:30	42.1	42.1	42.1	69	32.7	1	4	338	0.00	29.898 
10:35	42.2	42.2	42.2	68	32.4	2	6	315	0.00	29.898 
10:40	42.5	42.5	42.5	68	32.7	1	4	270	0.00	29.898 
10:45	42.6	42.6	42.6	67	32.4	1	3	292	0.00	29.899 
10:50	42.8	42.8	42.8	66	32.2	1	3	248	0.00	29.899 
10:55	42.6	42.6	42.6	66	32.0	1	2	315	0.00	29.899 
11:00	42.6	42.6	42.6	65	31.7	1	3	315	0.00	29.898 
11:05	42.6	42.6	42.6	66	32.0	2	5	270	0.00	29.898 
11:10	42.8	42.8	42.8	66	32.2	1	3	292	0.00	29.898 
11:15	43.2	43.2	43.2	65	32.2	1	4	270	0.00	29.900 
11:20	43.8	43.8	43.8	65	32.8	1	4	338	0.00	29.900 
11:25	44.3	44.3	44.3	66	33.7	1	4	338	0.00	29.900 
11:30	44.6	44.6	44.6	64	33.2	1	4	0	0.00	29.894 
11:35	44.9	44.9	44.9	66	34.2	1	4	315	0.00	29.894 
11:40	45.4	45.4	45.4	65	34.3	1	3	315	0.00	29.894 
11:45	45.5	45.5	45.5	64	34.0	1	3	315	0.00	29.895 
11:50	45.7	45.7	45.7	65	34.6	0	2	315	0.00	29.895 
11:55	46.0	46.0	46.0	65	34.9	1	4	270	0.00	29.895 
12:00	46.4	46.4	46.4	65	35.3	1	5	315	0.00	29.893 
12:05	47.0	47.0	47.0	64	35.5	1	6	338	0.00	29.893 
12:10	47.6	47.6	47.6	63	35.6	1	3	338	0.00	29.893 
12:15	47.9	47.9	47.9	63	35.9	1	4	338	0.00	29.891 
12:20	48.2	48.2	48.2	64	36.6	1	4	292	0.00	29.891 
12:25	48.3	48.3	48.3	64	36.7	2	4	270	0.00	29.891 
12:30	48.5	48.5	48.5	63	36.5	1	4	270	0.00	29.890 
12:35	48.6	48.6	48.6	65	37.4	1	3	315	0.00	29.890 
12:40	49.1	49.1	49.1	64	37.5	2	6	270	0.00	29.890 
12:45	49.2	49.2	49.2	62	36.7	2	4	270	0.00	29.880 
12:50	49.6	49.6	49.6	64	37.9	1	4	270	0.00	29.880 
12:55	49.9	49.9	49.9	64	38.2	1	6	0	0.00	29.880 
13:00	50.1	50.1	50.1	62	37.6	2	6	270	0.00	29.876 
13:05	50.1	50.1	50.1	62	37.6	2	3	338	0.00	29.876 
13:10	50.4	50.4	50.4	63	38.3	1	4	338	0.00	29.876 
13:15	51.0	51.0	51.0	62	38.4	1	5	338	0.00	29.883 
13:20	50.8	50.8	50.8	61	37.8	2	5	338	0.00	29.883 
13:25	51.4	51.4	51.4	62	38.8	2	4	338	0.00	29.883 
13:30	51.6	51.6	51.6	60	38.2	2	5	270	0.00	29.877 
13:35	52.0	52.0	52.0	60	38.5	1	4	338	0.00	29.877 
13:40	52.0	52.0	52.0	59	38.1	2	5	338	0.00	29.877 
13:45	52.2	52.2	52.2	58	37.9	2	7	0	0.00	29.877 
13:50	52.5	52.5	52.5	57	37.7	2	5	270	0.00	29.877 
13:55	52.8	52.8	52.8	58	38.4	2	4	270	0.00	29.877 
14:00	53.1	53.1	53.1	56	37.8	2	6	270	0.00	29.872 
14:05	53.5	53.5	53.5	55	37.7	2	5	315	0.00	29.872 
14:10	53.6	53.6	53.6	54	37.4	2	5	315	0.00	29.872 
14:15	53.6	53.6	53.6	54	37.4	1	4	292	0.00	29.870 
14:20	53.8	53.8	53.8	54	37.5	1	6	315	0.00	29.870 
14:25	54.4	54.4	54.4	54	38.1	1	4	292	0.00	29.870 
14:30	55.0	55.0	55.0	53	38.2	1	3	338	0.00	29.869 
14:35	55.1	55.1	55.1	51	37.3	2	5	270	0.00	29.869 
14:40	55.3	55.3	55.3	51	37.5	3	7	270	0.00	29.869 
14:45	55.0	55.0	55.0	49	36.2	2	4	338	0.00	29.864 
14:50	55.0	55.0	55.0	52	37.7	1	5	338	0.00	29.864 
14:55	55.4	55.4	55.4	51	37.6	1	4	338	0.00	29.864 
15:00	55.7	55.7	55.7	50	37.3	1	5	338	0.00	29.856 
15:05	56.3	56.3	56.3	49	37.4	2	4	248	0.00	29.856 
15:10	56.5	56.5	56.5	46	36.0	2	4	292	0.00	29.856 
15:15	56.2	56.2	56.2	47	36.2	2	4	315	0.00	29.853 
15:20	56.2	56.2	56.2	49	37.3	2	4	338	0.00	29.853 
15:25	56.5	56.5	56.5	50	38.1	1	4	270	0.00	29.853 
15:30	56.6	56.6	56.6	46	36.1	2	6	0	0.00	29.853 
15:35	56.6	56.6	56.6	46	36.1	1	4	315	0.00	29.853 
15:40	56.9	56.9	56.9	45	35.8	1	3	292	0.00	29.853 
15:45	56.9	56.9	56.9	43	34.6	1	4	338	0.00	29.852 
15:50	56.7	56.7	56.7	45	35.6	2	6	315	0.00	29.852 
15:55	56.7	56.7	56.7	43	34.5	2	4	338	0.00	29.852 
16:00	56.6	56.6	56.6	45	35.5	1	5	338	0.00	29.850 
16:05	57.0	57.0	57.0	44	35.3	2	3	338	0.00	29.850 
16:10	56.9	56.9	56.9	43	34.6	2	4	338	0.00	29.850 
16:15	57.0	57.0	57.0	45	35.9	2	4	338	0.00	29.852 
16:20	57.6	57.6	57.6	41	34.1	2	4	270	0.00	29.852 
16:25	57.6	57.6	57.6	39	32.8	2	5	270	0.00	29.852 
16:30	57.8	57.8	57.8	39	33.0	1	4	270	0.00	29.854 
16:35	58.0	58.0	58.0	39	33.2	2	4	270	0.00	29.854 
16:40	57.8	57.8	57.8	42	34.9	2	4	270	0.00	29.854 
16:45	58.3	58.3	58.3	41	34.7	1	6	315	0.00	29.856 
16:50	58.0	58.0	58.0	40	33.8	2	5	315	0.00	29.856 
16:55	57.8	57.8	57.8	41	34.3	2	5	270	0.00	29.856 
17:00	58.0	58.0	58.0	39	33.2	2	6	270	0.00	29.856 
17:05	58.1	58.1	58.1	39	33.3	3	6	270	0.00	29.856 
17:10	58.1	58.1	58.1	39	33.3	3	7	248	0.00	29.856 
17:15	57.8	57.8	57.8	37	31.7	3	6	315	0.00	29.858 
17:20	57.8	57.8	57.8	37	31.7	2	4	270	0.00	29.858 
17:25	57.8	57.8	57.8	37	31.7	3	6	270	0.00	29.858 
17:30	57.8	57.8	57.8	37	31.7	2	7	315	0.00	29.863 
17:35	57.8	57.8	57.8	37	31.7	2	6	270	0.00	29.863 
17:40	57.8	57.8	57.8	37	31.7	2	5	315	0.00	29.863 
17:45	57.8	57.8	57.8	38	32.4	2	5	270	0.00	29.868 
17:50	57.6	57.6	57.6	36	30.8	2	5	270	0.00	29.868 
17:55	57.8	57.8	57.8	35	30.3	2	5	292	0.00	29.868 
18:00	57.8	57.8	57.8	35	30.3	2	7	270	0.00	29.868 
18:05	57.8	57.8	57.8	35	30.3	2	4	270	0.00	29.868 
18:10	57.8	57.8	57.8	35	30.3	2	5	292	0.00	29.868 
18:15	57.6	57.6	57.6	35	30.2	1	4	338	0.00	29.871 
18:20	57.6	57.6	57.6	34	29.4	2	4	338	0.00	29.871 
18:25	57.6	57.6	57.6	32	28.0	3	6	270	0.00	29.871 
18:30	57.3	57.3	57.3	31	26.9	2	5	270	0.00	29.876 
18:35	57.3	57.3	57.3	32	27.7	2	4	248	0.00	29.876 
18:40	57.0	57.0	57.0	33	28.2	2	4	315	0.00	29.876 
18:45	56.9	56.9	56.9	32	27.4	2	4	270	0.00	29.880 
18:50	56.9	56.9	56.9	31	26.6	2	5	270	0.00	29.880 
18:55	56.7	56.7	56.7	32	27.2	1	3	292	0.00	29.880 
19:00	56.6	56.6	56.6	30	25.5	2	6	270	0.00	29.885 
19:05	56.5	56.5	56.5	30	25.4	1	4	292	0.00	29.885 
19:10	56.3	56.3	56.3	31	26.1	1	3	270	0.00	29.885 
19:15	56.2	56.2	56.2	31	26.0	2	4	270	0.00	29.894 
19:20	56.0	56.0	56.0	31	25.8	2	4	270	0.00	29.894 
19:25	55.9	55.9	55.9	30	24.9	2	5	270	0.00	29.894 
19:30	55.6	55.6	55.6	31	25.5	1	4	315	0.00	29.903 
19:35	55.3	55.3	55.3	31	25.2	2	4	248	0.00	29.903 
19:40	55.1	55.1	55.1	31	25.0	1	4	248	0.00	29.903 
19:45	54.8	54.8	54.8	31	24.8	1	5	248	0.00	29.912 
19:50	54.5	54.5	54.5	31	24.5	1	3	248	0.00	29.912 
19:55	54.2	54.2	54.2	31	24.2	1	3	248	0.00	29.912 
20:00	53.9	53.9	53.9	32	24.7	1	3	248	0.00	29.920 
20:05	53.6	53.6	53.6	33	25.2	0	2	248	0.00	29.920 
20:10	53.2	53.2	53.2	33	24.9	1	2	248	0.00	29.920 
20:15	52.9	52.9	52.9	33	24.6	1	4	248	0.00	29.924 
20:20	52.6	52.6	52.6	34	25.0	1	4	248	0.00	29.924 
20:25	52.5	52.5	52.5	33	24.2	1	3	248	0.00	29.924 
20:30	52.3	52.3	52.3	32	23.3	1	3	315	0.00	29.934 
20:35	52.2	52.2	52.2	33	24.0	1	3	270	0.00	29.934 
20:40	51.9	51.9	51.9	32	23.0	1	4	270	0.00	29.934 
20:45	51.7	51.7	51.7	32	22.8	1	3	0	0.00	29.937 
20:50	51.4	51.4	51.4	33	23.3	0	1	0	0.00	29.937 
20:55	51.1	51.1	51.1	33	23.0	0	2	315	0.00	29.937 
21:00	50.8	50.8	50.8	34	23.5	1	4	315	0.00	29.949 
21:05	50.7	50.7	50.7	34	23.4	1	2	315	0.00	29.949 
21:10	50.5	50.5	50.5	35	23.9	0	2	315	0.00	29.949 
21:15	50.2	50.2	50.2	35	23.6	0	1	315	0.00	29.955 
21:20	49.8	49.8	49.8	37	24.6	0	1	315	0.00	29.955 
21:25	49.4	49.4	49.4	37	24.2	0	1	315	0.00	29.955 
21:30	49.1	49.1	49.1	38	24.6	0	1	315	0.00	29.967 
21:35	48.8	48.8	48.8	39	25.0	0	1	315	0.00	29.967 
21:40	48.5	48.5	48.5	39	24.7	0	2	292	0.00	29.967 
21:45	48.3	48.3	48.3	39	24.5	0	1	292	0.00	29.972 
21:50	48.0	48.0	48.0	40	24.8	0	1	292	0.00	29.972 
21:55	47.9	47.9	47.9	40	24.8	0	1	292	0.00	29.972 
22:00	47.6	47.6	47.6	41	25.1	0	0	---	0.00	29.978 
22:05	47.3	47.3	47.3	41	24.8	0	1	292	0.00	29.978 
22:10	47.0	47.0	47.0	42	25.1	0	1	292	0.00	29.978 
22:15	46.7	46.7	46.7	42	24.8	0	1	292	0.00	29.983 
22:20	46.4	46.4	46.4	43	25.1	0	1	292	0.00	29.983 
22:25	46.2	46.2	46.2	43	25.0	0	0	---	0.00	29.983 
22:30	46.0	46.0	46.0	43	24.8	0	0	---	0.00	29.986 
22:35	45.7	45.7	45.7	44	25.0	0	0	---	0.00	29.986 
22:40	45.2	45.2	45.2	44	24.6	0	0	---	0.00	29.986 
22:45	45.1	45.1	45.1	45	25.0	0	0	---	0.00	29.988 
22:50	44.8	44.8	44.8	45	24.8	0	0	---	0.00	29.988 
22:55	44.3	44.3	44.3	46	24.8	0	0	---	0.00	29.988 
23:00	43.9	43.9	43.9	46	24.5	0	0	---	0.00	29.995 
23:05	43.5	43.5	43.5	47	24.6	0	0	---	0.00	29.995 
23:10	43.1	43.1	43.1	49	25.3	0	0	---	0.00	29.995 
23:15	42.6	42.6	42.6	49	24.8	0	0	---	0.00	29.999 
23:20	42.2	42.2	42.2	50	24.9	0	0	---	0.00	29.999 
23:25	41.9	41.9	41.9	51	25.1	0	0	---	0.00	29.999 
23:30	41.6	41.6	41.6	53	25.8	0	0	---	0.00	30.001 
23:35	41.3	41.3	41.3	53	25.5	0	0	---	0.00	30.001 
23:40	41.1	41.1	41.1	53	25.3	0	0	---	0.00	30.001 
23:45	40.8	40.8	40.8	54	25.5	0	0	---	0.00	30.003 
23:50	40.5	40.5	40.5	55	25.6	0	0	---	0.00	30.003 
23:55	40.2	40.2	40.2	56	25.8	0	0	---	0.00	30.003 

CoCoRaHS
IN-AL-39
A2 Web Hosting
Creative Commons License
GoDaddy
search engine by freefind advanced

loaded 2018-11-13 23:49:28 • last modified 2010-11-18 10:43:29
Privacy PolicyDisclaimer
• wx.awcolley.com is powered by PmWiki v.2002016 •
• all content (unless otherwise noted) © 2018 A W Colley